DELTA 1 DEB

Satellite information

Favourite Embed

Satellite Type and Status

DEBRISIN ORBIT

Key statistics

Satellite DELTA 1 DEB at a glance.

Uptime

18035

Days in orbit

Revolutions

≈ 12.4

Per day

Orbit

SSO

Sun Synchronous Orbit

Inclination

102.0

Latest

Satellite identification and parameters

Extended collection of information and parameters for DELTA 1 DEB.

Object identification

Identified? True

Debris? True

Object name: DELTA 1 DEB

International designator: 1976-077DP

Object number (NORAD): 12534

Object ID (CCSDS): 12534

Country: UNITED STATES OF AMERICA (US)

Current information (Y/N): Y

RCS size: SMALL

Orbital parameters

Period: 116.403 minutes

Inclination: 102.0188 deg

SMA: 7897.137 km

Apoapsis: 1560.998 km

Periapsis: 1477.007 km

RAAN: 53.6511 deg

Eccentricy: 0.00531783

Argument of periapsis: 68.9551 deg

Mean anomaly: 58.2983 deg

Mean motion: 12.37081238 rev/day

Mean motion (dot): 0.00000398 rev/day2

B* drag term: 0.0034199509 1/REarth

Two-line elements (TLE)

Creation date: Dec. 14, 2025, 3:07 a.m.

Reference frame: TEME

Reference center: EARTH

Epoch: Dec. 13, 2025, 10:38 a.m. UTC

TLE line 0: 0 DELTA 1 DEB

TLE line 1: 1 12534U 76077DP 25347.44335500 .00000398 00000-0 34200-2 0 9998

TLE line 2: 2 12534 102.0188 53.6511 0053178 68.9551 58.2983 12.37081238146287

Live tracking on map

Real-time ground track for satellite DELTA 1 DEB.

In-orbit conjunctions

A list of the most updated potential collisions computed for object DELTA 1 DEB.

Target Orbit TCA Probability of collision Miss distance Type
BREEZE-KM R/B LEO 2025-04-13 05:02:23 0.0001111384 596.0 (m) ROCKET BODY

Associated space launch

Meteorological satellite using radiometric imaging

DELTA 1 DEB was lifted into orbit during the mission ‘Delta 2310 | NOAA 5’, on board a Delta 2310 space rocket.

The launch took place on July 29, 1976, 5:07 p.m. from Space Launch Complex 2W.

For more information about the launch, click the button.

Launch to space Delta 2310 | NOAA 5
Delta 2310 | NOAA 5

Agency: N/A

Status: Launch Successful

Launch date: July 29, 1976, 5:07 p.m. UTC

Rocket: Delta 2310

Launch pad: Space Launch Complex 2W

Location: Vandenberg SFB, CA, USA

...

Latest news about this satellite

There are no fresh news available about this satellite. Check back as we update our databases every day.


Newsletter sign-up

Weekly statistics, charts and insights to help you stay on top of the space industry.